Year,Month,Day,Hour,Minute,Value (Times are PST for temperature in C)
2018,08,09,00,00,20.50
2018,08,09,00,01,20.50
2018,08,09,00,02,20.50
2018,08,09,00,03,20.50
2018,08,09,00,04,20.50
2018,08,09,00,05,20.50
2018,08,09,00,06,20.50
2018,08,09,00,07,20.40
2018,08,09,00,08,20.40
2018,08,09,00,09,20.40
2018,08,09,00,10,20.40
2018,08,09,00,11,20.40
2018,08,09,00,12,20.40
2018,08,09,00,13,20.40
2018,08,09,00,14,20.40
2018,08,09,00,15,20.40
2018,08,09,00,16,20.40
2018,08,09,00,17,20.40
2018,08,09,00,18,20.40
2018,08,09,00,19,20.40
2018,08,09,00,20,20.30
2018,08,09,00,21,20.30
2018,08,09,00,22,20.30
2018,08,09,00,23,20.30
2018,08,09,00,24,20.30
2018,08,09,00,25,20.30
2018,08,09,00,26,20.30
2018,08,09,00,27,20.30
2018,08,09,00,28,20.30
2018,08,09,00,29,20.20
2018,08,09,00,30,20.20
2018,08,09,00,31,20.20
2018,08,09,00,32,20.20
2018,08,09,00,33,20.20
2018,08,09,00,34,20.20
2018,08,09,00,35,20.20
2018,08,09,00,36,20.20
2018,08,09,00,37,20.20
2018,08,09,00,38,20.10
2018,08,09,00,39,20.10
2018,08,09,00,40,20.10
2018,08,09,00,41,20.10
2018,08,09,00,42,20.10
2018,08,09,00,43,20.10
2018,08,09,00,44,20.10
2018,08,09,00,45,20.10
2018,08,09,00,46,20.10
2018,08,09,00,47,20.10
2018,08,09,00,48,20.10
2018,08,09,00,49,20.10
2018,08,09,00,50,20.10
2018,08,09,00,51,20.10
2018,08,09,00,52,20.10
2018,08,09,00,53,20.10
2018,08,09,00,54,20.10
2018,08,09,00,55,20.10
2018,08,09,00,56,20.10
2018,08,09,00,57,20.10
2018,08,09,00,58,20.10
2018,08,09,00,59,20.10
2018,08,09,01,00,20.10
2018,08,09,01,01,20.10
2018,08,09,01,02,20.10
2018,08,09,01,03,20.10
2018,08,09,01,04,20.10
2018,08,09,01,05,20.10
2018,08,09,01,06,20.10
2018,08,09,01,07,20.10
2018,08,09,01,08,20.10
2018,08,09,01,09,20.10
2018,08,09,01,10,20.10
2018,08,09,01,11,20.10
2018,08,09,01,12,20.20
2018,08,09,01,13,20.20
2018,08,09,01,14,20.20
2018,08,09,01,15,20.20
2018,08,09,01,16,20.20
2018,08,09,01,17,20.20
2018,08,09,01,18,20.20
2018,08,09,01,19,20.20
2018,08,09,01,20,20.20
2018,08,09,01,21,20.20
2018,08,09,01,22,20.20
2018,08,09,01,23,20.20
2018,08,09,01,24,20.20
2018,08,09,01,25,20.20
2018,08,09,01,26,20.20
2018,08,09,01,27,20.20
2018,08,09,01,28,20.20
2018,08,09,01,29,20.20
2018,08,09,01,30,20.20
2018,08,09,01,31,20.20
2018,08,09,01,32,20.20
2018,08,09,01,33,20.20
2018,08,09,01,34,20.20
2018,08,09,01,35,20.20
2018,08,09,01,36,20.20
2018,08,09,01,37,20.20
2018,08,09,01,38,20.20
2018,08,09,01,39,20.20
2018,08,09,01,40,20.20
2018,08,09,01,41,20.20
2018,08,09,01,42,20.20
2018,08,09,01,43,20.20
2018,08,09,01,44,20.20
2018,08,09,01,45,20.20
2018,08,09,01,46,20.20
2018,08,09,01,47,20.20
2018,08,09,01,48,20.10
2018,08,09,01,49,20.10
2018,08,09,01,50,20.10
2018,08,09,01,51,20.10
2018,08,09,01,52,20.10
2018,08,09,01,53,20.00
2018,08,09,01,54,20.00
2018,08,09,01,55,20.00
2018,08,09,01,56,20.00
2018,08,09,01,57,20.00
2018,08,09,01,58,19.90
2018,08,09,01,59,19.90
2018,08,09,02,00,19.90
2018,08,09,02,01,19.90
2018,08,09,02,02,19.90
2018,08,09,02,03,19.90
2018,08,09,02,04,19.90
2018,08,09,02,05,19.90
2018,08,09,02,06,19.90
2018,08,09,02,07,19.90
2018,08,09,02,08,19.90
2018,08,09,02,09,19.80
2018,08,09,02,10,19.80
2018,08,09,02,11,19.80
2018,08,09,02,12,19.80
2018,08,09,02,13,19.80
2018,08,09,02,14,19.80
2018,08,09,02,15,19.80
2018,08,09,02,16,19.80
2018,08,09,02,17,19.80
2018,08,09,02,18,19.80
2018,08,09,02,19,19.80
2018,08,09,02,20,19.80
2018,08,09,02,21,19.80
2018,08,09,02,22,19.70
2018,08,09,02,23,19.70
2018,08,09,02,24,19.70
2018,08,09,02,25,19.70
2018,08,09,02,26,19.70
2018,08,09,02,27,19.70
2018,08,09,02,28,19.70
2018,08,09,02,29,19.70
2018,08,09,02,30,19.70
2018,08,09,02,31,19.70
2018,08,09,02,32,19.70
2018,08,09,02,33,19.60
2018,08,09,02,34,19.60
2018,08,09,02,35,19.60
2018,08,09,02,36,19.60
2018,08,09,02,37,19.60
2018,08,09,02,38,19.60
2018,08,09,02,39,19.60
2018,08,09,02,40,19.60
2018,08,09,02,41,19.60
2018,08,09,02,42,19.60
2018,08,09,02,43,19.50
2018,08,09,02,44,19.50
2018,08,09,02,45,19.50
2018,08,09,02,46,19.40
2018,08,09,02,47,19.40
2018,08,09,02,48,19.40
2018,08,09,02,49,19.40
2018,08,09,02,50,19.30
2018,08,09,02,51,19.30
2018,08,09,02,52,19.30
2018,08,09,02,53,19.30
2018,08,09,02,54,19.30
2018,08,09,02,55,19.20
2018,08,09,02,56,19.20
2018,08,09,02,57,19.20
2018,08,09,02,58,19.10
2018,08,09,02,59,19.10
2018,08,09,03,00,19.10
2018,08,09,03,01,19.00
2018,08,09,03,02,19.00
2018,08,09,03,03,19.00
2018,08,09,03,04,18.90
2018,08,09,03,05,18.90
2018,08,09,03,06,18.90
2018,08,09,03,07,18.80
2018,08,09,03,08,18.80
2018,08,09,03,09,18.80
2018,08,09,03,10,18.70
2018,08,09,03,11,18.70
2018,08,09,03,12,18.70
2018,08,09,03,13,18.70
2018,08,09,03,14,18.60
2018,08,09,03,15,18.60
2018,08,09,03,16,18.50
2018,08,09,03,17,18.50
2018,08,09,03,18,18.50
2018,08,09,03,19,18.40
2018,08,09,03,20,18.40
2018,08,09,03,21,18.30
2018,08,09,03,22,18.30
2018,08,09,03,23,18.30
2018,08,09,03,24,18.20
2018,08,09,03,25,18.20
2018,08,09,03,26,18.20
2018,08,09,03,27,18.10
2018,08,09,03,28,18.10
2018,08,09,03,29,18.00
2018,08,09,03,30,18.00
2018,08,09,03,31,18.00
2018,08,09,03,32,17.90
2018,08,09,03,33,17.90
2018,08,09,03,34,17.90
2018,08,09,03,35,17.80
2018,08,09,03,36,17.80
2018,08,09,03,37,17.80
2018,08,09,03,38,17.80
2018,08,09,03,39,17.70
2018,08,09,03,40,17.70
2018,08,09,03,41,17.70
2018,08,09,03,42,17.70
2018,08,09,03,43,17.60
2018,08,09,03,44,17.60
2018,08,09,03,45,17.60
2018,08,09,03,46,17.60
2018,08,09,03,47,17.50
2018,08,09,03,48,17.50
2018,08,09,03,49,17.40
2018,08,09,03,50,17.40
2018,08,09,03,51,17.40
2018,08,09,03,52,17.40
2018,08,09,03,53,17.30
2018,08,09,03,54,17.30
2018,08,09,03,55,17.30
2018,08,09,03,56,17.20
2018,08,09,03,57,17.20
2018,08,09,03,58,17.20
2018,08,09,03,59,17.20
2018,08,09,04,00,17.20
2018,08,09,04,01,17.20
2018,08,09,04,02,17.10
2018,08,09,04,03,17.10
2018,08,09,04,04,17.10
2018,08,09,04,05,17.10
2018,08,09,04,06,17.00
2018,08,09,04,07,17.00
2018,08,09,04,08,17.00
2018,08,09,04,09,17.00
2018,08,09,04,10,16.90
2018,08,09,04,11,16.90
2018,08,09,04,12,16.90
2018,08,09,04,13,16.90
2018,08,09,04,14,16.90
2018,08,09,04,15,16.80
2018,08,09,04,16,16.80
2018,08,09,04,17,16.80
2018,08,09,04,18,16.80
2018,08,09,04,19,16.80
2018,08,09,04,20,16.80
2018,08,09,04,21,16.80
2018,08,09,04,22,16.80
2018,08,09,04,23,16.80
2018,08,09,04,24,16.80
2018,08,09,04,25,16.80
2018,08,09,04,26,16.80
2018,08,09,04,27,16.80
2018,08,09,04,28,16.80
2018,08,09,04,29,16.80
2018,08,09,04,30,16.80
2018,08,09,04,31,16.80
2018,08,09,04,32,16.80
2018,08,09,04,33,16.80
2018,08,09,04,34,16.80
2018,08,09,04,35,16.90
2018,08,09,04,36,16.90
2018,08,09,04,37,16.90
2018,08,09,04,38,16.90
2018,08,09,04,39,16.90
2018,08,09,04,40,16.90
2018,08,09,04,41,16.80
2018,08,09,04,42,16.80
2018,08,09,04,43,16.80
2018,08,09,04,44,16.80
2018,08,09,04,45,16.80
2018,08,09,04,46,16.80
2018,08,09,04,47,16.70
2018,08,09,04,48,16.70
2018,08,09,04,49,16.70
2018,08,09,04,50,16.60
2018,08,09,04,51,16.50
2018,08,09,04,52,16.50
2018,08,09,04,53,16.40
2018,08,09,04,54,16.40
2018,08,09,04,55,16.30
2018,08,09,04,56,16.20
2018,08,09,04,57,16.20
2018,08,09,04,58,16.10
2018,08,09,04,59,16.00
2018,08,09,05,00,15.90
2018,08,09,05,01,15.80
2018,08,09,05,02,15.80
2018,08,09,05,03,15.70
2018,08,09,05,04,15.60
2018,08,09,05,05,15.50
2018,08,09,05,06,15.40
2018,08,09,05,07,15.30
2018,08,09,05,08,15.30
2018,08,09,05,09,15.20
2018,08,09,05,10,15.10
2018,08,09,05,11,15.00
2018,08,09,05,12,15.00
2018,08,09,05,13,14.90
2018,08,09,05,14,14.90
2018,08,09,05,15,14.80
2018,08,09,05,16,14.80
2018,08,09,05,17,14.70
2018,08,09,05,18,14.60
2018,08,09,05,19,14.60
2018,08,09,05,20,14.50
2018,08,09,05,21,14.50
2018,08,09,05,22,14.40
2018,08,09,05,23,14.40
2018,08,09,05,24,14.30
2018,08,09,05,25,14.30
2018,08,09,05,26,14.30
2018,08,09,05,27,14.30
2018,08,09,05,28,14.30
2018,08,09,05,29,14.30
2018,08,09,05,30,14.20
2018,08,09,05,31,14.20
2018,08,09,05,32,14.20
2018,08,09,05,33,14.20
2018,08,09,05,34,14.20
2018,08,09,05,35,14.20
2018,08,09,05,36,14.20
2018,08,09,05,37,14.20
2018,08,09,05,38,14.20
2018,08,09,05,39,14.20
2018,08,09,05,40,14.20
2018,08,09,05,41,14.10
2018,08,09,05,42,14.10
2018,08,09,05,43,14.00
2018,08,09,05,44,14.00
2018,08,09,05,45,13.90
2018,08,09,05,46,13.90
2018,08,09,05,47,13.80
2018,08,09,05,48,13.80
2018,08,09,05,49,13.80
2018,08,09,05,50,13.80
2018,08,09,05,51,13.80
2018,08,09,05,52,13.80
2018,08,09,05,53,13.80
2018,08,09,05,54,13.80
2018,08,09,05,55,13.80
2018,08,09,05,56,13.80
2018,08,09,05,57,13.80
2018,08,09,05,58,13.80
2018,08,09,05,59,13.80
2018,08,09,06,00,13.80
2018,08,09,06,01,13.80
2018,08,09,06,02,13.80
2018,08,09,06,03,13.80
2018,08,09,06,04,13.80
2018,08,09,06,05,13.80
2018,08,09,06,06,13.70
2018,08,09,06,07,13.70
2018,08,09,06,08,13.70
2018,08,09,06,09,13.70
2018,08,09,06,10,13.70
2018,08,09,06,11,13.70
2018,08,09,06,12,13.70
2018,08,09,06,13,13.70
2018,08,09,06,14,13.80
2018,08,09,06,15,13.80
2018,08,09,06,16,13.80
2018,08,09,06,17,13.80
2018,08,09,06,18,13.80
2018,08,09,06,19,13.90
2018,08,09,06,20,13.90
2018,08,09,06,21,13.90
2018,08,09,06,22,13.90
2018,08,09,06,23,13.90
2018,08,09,06,24,13.90
2018,08,09,06,25,14.00
2018,08,09,06,26,14.00
2018,08,09,06,27,14.00
2018,08,09,06,28,14.10
2018,08,09,06,29,14.10
2018,08,09,06,30,14.10
2018,08,09,06,31,14.20
2018,08,09,06,32,14.20
2018,08,09,06,33,14.20
2018,08,09,06,34,14.20
2018,08,09,06,35,14.20
2018,08,09,06,36,14.20
2018,08,09,06,37,14.20
2018,08,09,06,38,14.20
2018,08,09,06,39,14.20
2018,08,09,06,40,14.20
2018,08,09,06,41,14.20
2018,08,09,06,42,14.30
2018,08,09,06,43,14.30
2018,08,09,06,44,14.30
2018,08,09,06,45,14.30
2018,08,09,06,46,14.30
2018,08,09,06,47,14.30
2018,08,09,06,48,14.30
2018,08,09,06,49,14.30
2018,08,09,06,50,14.30
2018,08,09,06,51,14.30
2018,08,09,06,52,14.30
2018,08,09,06,53,14.30
2018,08,09,06,54,14.30
2018,08,09,06,55,14.40
2018,08,09,06,56,14.40
2018,08,09,06,57,14.40
2018,08,09,06,58,14.40
2018,08,09,06,59,14.40
2018,08,09,07,00,14.40
2018,08,09,07,01,14.40
2018,08,09,07,02,14.50
2018,08,09,07,03,14.50
2018,08,09,07,04,14.50
2018,08,09,07,05,14.60
2018,08,09,07,06,14.60
2018,08,09,07,07,14.60
2018,08,09,07,08,14.60
2018,08,09,07,09,14.60
2018,08,09,07,10,14.70
2018,08,09,07,11,14.70
2018,08,09,07,12,14.70
2018,08,09,07,13,14.70
2018,08,09,07,14,14.70
2018,08,09,07,15,14.80
2018,08,09,07,16,14.80
2018,08,09,07,17,14.80
2018,08,09,07,18,14.80
2018,08,09,07,19,14.90
2018,08,09,07,20,14.90
2018,08,09,07,21,14.90
2018,08,09,07,22,14.90
2018,08,09,07,23,15.00
2018,08,09,07,24,15.00
2018,08,09,07,25,15.00
2018,08,09,07,26,15.10
2018,08,09,07,27,15.10
2018,08,09,07,28,15.10
2018,08,09,07,29,15.10
2018,08,09,07,30,15.20
2018,08,09,07,31,15.20
2018,08,09,07,32,15.20
2018,08,09,07,33,15.20
2018,08,09,07,34,15.30
2018,08,09,07,35,15.30
2018,08,09,07,36,15.30
2018,08,09,07,37,15.30
2018,08,09,07,38,15.40
2018,08,09,07,39,15.40
2018,08,09,07,40,15.50
2018,08,09,07,41,15.50
2018,08,09,07,42,15.50
2018,08,09,07,43,15.60
2018,08,09,07,44,15.60
2018,08,09,07,45,15.70
2018,08,09,07,46,15.70
2018,08,09,07,47,15.80
2018,08,09,07,48,15.80
2018,08,09,07,49,15.90
2018,08,09,07,50,15.90
2018,08,09,07,51,16.00
2018,08,09,07,52,16.10
2018,08,09,07,53,16.20
2018,08,09,07,54,16.20
2018,08,09,07,55,16.30
2018,08,09,07,56,16.40
2018,08,09,07,57,16.40
2018,08,09,07,58,16.50
2018,08,09,07,59,16.50
2018,08,09,08,00,16.60
2018,08,09,08,01,16.60
2018,08,09,08,02,16.70
2018,08,09,08,03,16.70
2018,08,09,08,04,16.70
2018,08,09,08,05,16.80
2018,08,09,08,06,16.80
2018,08,09,08,07,16.80
2018,08,09,08,08,16.90
2018,08,09,08,09,16.90
2018,08,09,08,10,17.00
2018,08,09,08,11,17.00
2018,08,09,08,12,17.10
2018,08,09,08,13,17.10
2018,08,09,08,14,17.10
2018,08,09,08,15,17.20
2018,08,09,08,16,17.20
2018,08,09,08,17,17.20
2018,08,09,08,18,17.30
2018,08,09,08,19,17.30
2018,08,09,08,20,17.30
2018,08,09,08,21,17.30
2018,08,09,08,22,17.30
2018,08,09,08,23,17.30
2018,08,09,08,24,17.40
2018,08,09,08,25,17.40
2018,08,09,08,26,17.40
2018,08,09,08,27,17.50
2018,08,09,08,28,17.50
2018,08,09,08,29,17.60
2018,08,09,08,30,17.60
2018,08,09,08,31,17.60
2018,08,09,08,32,17.70
2018,08,09,08,33,17.70
2018,08,09,08,34,17.70
2018,08,09,08,35,17.80
2018,08,09,08,36,17.80
2018,08,09,08,37,17.90
2018,08,09,08,38,18.00
2018,08,09,08,39,18.00
2018,08,09,08,40,18.10
2018,08,09,08,41,18.20
2018,08,09,08,42,18.20
2018,08,09,08,43,18.30
2018,08,09,08,44,18.30
2018,08,09,08,45,18.40
2018,08,09,08,46,18.50
2018,08,09,08,47,18.60
2018,08,09,08,48,18.60
2018,08,09,08,49,18.60
2018,08,09,08,50,18.70
2018,08,09,08,51,18.80
2018,08,09,08,52,18.90
2018,08,09,08,53,18.90
2018,08,09,08,54,19.00
2018,08,09,08,55,19.10
2018,08,09,08,56,19.10
2018,08,09,08,57,19.10
2018,08,09,08,58,19.20
2018,08,09,08,59,19.30
2018,08,09,09,00,19.30
2018,08,09,09,01,19.40
2018,08,09,09,02,19.50
2018,08,09,09,03,19.60
2018,08,09,09,04,19.70
2018,08,09,09,05,19.70
2018,08,09,09,06,19.80
2018,08,09,09,07,19.80
2018,08,09,09,08,19.90
2018,08,09,09,09,20.00
2018,08,09,09,10,20.00
2018,08,09,09,11,20.10
2018,08,09,09,12,20.10
2018,08,09,09,13,20.20
2018,08,09,09,14,20.20
2018,08,09,09,15,20.30
2018,08,09,09,16,20.30
2018,08,09,09,17,20.30
2018,08,09,09,18,20.40
2018,08,09,09,19,20.40
2018,08,09,09,20,20.40
2018,08,09,09,21,20.40
2018,08,09,09,22,20.40
2018,08,09,09,23,20.40
2018,08,09,09,24,20.40
2018,08,09,09,25,20.50
2018,08,09,09,26,20.50
2018,08,09,09,27,20.60
2018,08,09,09,28,20.60
2018,08,09,09,29,20.70
2018,08,09,09,30,20.70
2018,08,09,09,31,20.80
2018,08,09,09,32,20.80
2018,08,09,09,33,20.80
2018,08,09,09,34,20.90
2018,08,09,09,35,20.90
2018,08,09,09,36,20.90
2018,08,09,09,37,20.90
2018,08,09,09,38,21.00
2018,08,09,09,39,21.00
2018,08,09,09,40,21.00
2018,08,09,09,41,21.00
2018,08,09,09,42,21.10
2018,08,09,09,43,21.10
2018,08,09,09,44,21.20
2018,08,09,09,45,21.20
2018,08,09,09,46,21.30
2018,08,09,09,47,21.40
2018,08,09,09,48,21.40
2018,08,09,09,49,21.50
2018,08,09,09,50,21.50
2018,08,09,09,51,21.60
2018,08,09,09,52,21.60
2018,08,09,09,53,21.60
2018,08,09,09,54,21.70
2018,08,09,09,55,21.70
2018,08,09,09,56,21.80
2018,08,09,09,57,21.80
2018,08,09,09,58,21.80
2018,08,09,09,59,21.90
2018,08,09,10,00,21.90
2018,08,09,10,01,22.00
2018,08,09,10,02,22.10
2018,08,09,10,03,22.10
2018,08,09,10,04,22.10
2018,08,09,10,05,22.20
2018,08,09,10,06,22.20
2018,08,09,10,07,22.20
2018,08,09,10,08,22.20
2018,08,09,10,09,22.20
2018,08,09,10,10,22.20
2018,08,09,10,11,22.20
2018,08,09,10,12,22.20
2018,08,09,10,13,22.20
2018,08,09,10,14,22.10
2018,08,09,10,15,22.10
2018,08,09,10,16,22.00
2018,08,09,10,17,21.90
2018,08,09,10,18,21.80
2018,08,09,10,19,21.70
2018,08,09,10,20,21.50
2018,08,09,10,21,21.30
2018,08,09,10,22,21.20
2018,08,09,10,23,21.10
2018,08,09,10,24,21.00
2018,08,09,10,25,20.80
2018,08,09,10,26,20.70
2018,08,09,10,27,20.60
2018,08,09,10,28,20.60
2018,08,09,10,29,20.50
2018,08,09,10,30,20.40
2018,08,09,10,31,20.40
2018,08,09,10,32,20.30
2018,08,09,10,33,20.30
2018,08,09,10,34,20.30
2018,08,09,10,35,20.20
2018,08,09,10,36,20.10
2018,08,09,10,37,19.90
2018,08,09,10,38,19.80
2018,08,09,10,39,19.80
2018,08,09,10,40,19.70
2018,08,09,10,41,19.50
2018,08,09,10,42,19.40
2018,08,09,10,43,19.30
2018,08,09,10,44,19.30
2018,08,09,10,45,19.30
2018,08,09,10,46,19.20
2018,08,09,10,47,19.20
2018,08,09,10,48,19.10
2018,08,09,10,49,19.10
2018,08,09,10,50,19.10
2018,08,09,10,51,19.20
2018,08,09,10,52,19.20
2018,08,09,10,53,19.20
2018,08,09,10,54,19.20
2018,08,09,10,55,19.20
2018,08,09,10,56,19.20
2018,08,09,10,57,19.20
2018,08,09,10,58,19.20
2018,08,09,10,59,19.20
2018,08,09,11,00,19.20
2018,08,09,11,01,19.30
2018,08,09,11,02,19.30
2018,08,09,11,03,19.40
2018,08,09,11,04,19.50
2018,08,09,11,05,19.60
2018,08,09,11,06,19.60
2018,08,09,11,07,19.70
2018,08,09,11,08,19.80
2018,08,09,11,09,19.90
2018,08,09,11,10,20.00
2018,08,09,11,11,20.10
2018,08,09,11,12,20.20
2018,08,09,11,13,20.30
2018,08,09,11,14,20.40
2018,08,09,11,15,20.50
2018,08,09,11,16,20.60
2018,08,09,11,17,20.70
2018,08,09,11,18,20.90
2018,08,09,11,19,21.00
2018,08,09,11,20,21.10
2018,08,09,11,21,21.20
2018,08,09,11,22,21.30
2018,08,09,11,23,21.40
2018,08,09,11,24,21.50
2018,08,09,11,25,21.60
2018,08,09,11,26,21.70
2018,08,09,11,27,21.70
2018,08,09,11,28,21.80
2018,08,09,11,29,21.80
2018,08,09,11,30,21.90
2018,08,09,11,31,22.00
2018,08,09,11,32,22.10
2018,08,09,11,33,22.10
2018,08,09,11,34,22.20
2018,08,09,11,35,22.30
2018,08,09,11,36,22.40
2018,08,09,11,37,22.50
2018,08,09,11,38,22.60
2018,08,09,11,39,22.60
2018,08,09,11,40,22.70
2018,08,09,11,41,22.70
2018,08,09,11,42,22.70
2018,08,09,11,43,22.70
2018,08,09,11,44,22.70
2018,08,09,11,45,22.70
2018,08,09,11,46,22.70
2018,08,09,11,47,22.80
2018,08,09,11,48,22.80
2018,08,09,11,49,22.80
2018,08,09,11,50,22.90
2018,08,09,11,51,22.90
2018,08,09,11,52,22.90
2018,08,09,11,53,23.00
2018,08,09,11,54,23.00
2018,08,09,11,55,23.10
2018,08,09,11,56,23.10
2018,08,09,11,57,23.20
2018,08,09,11,58,23.20
2018,08,09,11,59,23.20
2018,08,09,12,00,23.20
2018,08,09,12,01,23.20
2018,08,09,12,02,23.20
2018,08,09,12,03,23.30
2018,08,09,12,04,23.40
2018,08,09,12,05,23.40
2018,08,09,12,06,23.50
2018,08,09,12,07,23.50
2018,08,09,12,08,23.60
2018,08,09,12,09,23.70
2018,08,09,12,10,23.70
2018,08,09,12,11,23.80
2018,08,09,12,12,23.80
2018,08,09,12,13,23.90
2018,08,09,12,14,23.90
2018,08,09,12,15,24.00
2018,08,09,12,16,24.10
2018,08,09,12,17,24.20
2018,08,09,12,18,24.30
2018,08,09,12,19,24.40
2018,08,09,12,20,24.50
2018,08,09,12,21,24.50
2018,08,09,12,22,24.60
2018,08,09,12,23,24.60
2018,08,09,12,24,24.60
2018,08,09,12,25,24.60
2018,08,09,12,26,24.60
2018,08,09,12,27,24.60
2018,08,09,12,28,24.70
2018,08,09,12,29,24.70
2018,08,09,12,30,24.70
2018,08,09,12,31,24.80
2018,08,09,12,32,24.80
2018,08,09,12,33,24.80
2018,08,09,12,34,24.90
2018,08,09,12,35,24.90
2018,08,09,12,36,24.90
2018,08,09,12,37,24.90
2018,08,09,12,38,24.90
2018,08,09,12,39,25.00
2018,08,09,12,40,25.10
2018,08,09,12,41,25.20
2018,08,09,12,42,25.20
2018,08,09,12,43,25.30
2018,08,09,12,44,25.30
2018,08,09,12,45,25.40
2018,08,09,12,46,25.40
2018,08,09,12,47,25.40
2018,08,09,12,48,25.40
2018,08,09,12,49,25.40
2018,08,09,12,50,25.40
2018,08,09,12,51,25.40
2018,08,09,12,52,25.40
2018,08,09,12,53,25.50
2018,08,09,12,54,25.50
2018,08,09,12,55,25.50
2018,08,09,12,56,25.50
2018,08,09,12,57,25.40
2018,08,09,12,58,25.40
2018,08,09,12,59,25.30
2018,08,09,13,00,25.30
2018,08,09,13,01,25.30
2018,08,09,13,02,25.40
2018,08,09,13,03,25.40
2018,08,09,13,04,25.50
2018,08,09,13,05,25.60
2018,08,09,13,06,25.60
2018,08,09,13,07,25.70
2018,08,09,13,08,25.80
2018,08,09,13,09,25.80
2018,08,09,13,10,25.90
2018,08,09,13,11,26.00
2018,08,09,13,12,26.00
2018,08,09,13,13,26.10
2018,08,09,13,14,26.10
2018,08,09,13,15,26.10
2018,08,09,13,16,26.10
2018,08,09,13,17,26.10
2018,08,09,13,18,26.10
2018,08,09,13,19,26.10
2018,08,09,13,20,26.10
2018,08,09,13,21,26.10
2018,08,09,13,22,26.20
2018,08,09,13,23,26.20
2018,08,09,13,24,26.20
2018,08,09,13,25,26.30
2018,08,09,13,26,26.20
2018,08,09,13,27,26.20
2018,08,09,13,28,26.10
2018,08,09,13,29,26.10
2018,08,09,13,30,26.10
2018,08,09,13,31,26.00
2018,08,09,13,32,26.10
2018,08,09,13,33,26.10
2018,08,09,13,34,26.10
2018,08,09,13,35,26.10
2018,08,09,13,36,26.10
2018,08,09,13,37,26.10
2018,08,09,13,38,26.20
2018,08,09,13,39,26.20
2018,08,09,13,40,26.20
2018,08,09,13,41,26.20
2018,08,09,13,42,26.20
2018,08,09,13,43,26.20
2018,08,09,13,44,26.20
2018,08,09,13,45,26.20
2018,08,09,13,46,26.20
2018,08,09,13,47,26.20
2018,08,09,13,48,26.20
2018,08,09,13,49,26.10
2018,08,09,13,50,26.10
2018,08,09,13,51,26.10
2018,08,09,13,52,26.10
2018,08,09,13,53,26.10
2018,08,09,13,54,26.10
2018,08,09,13,55,26.10
2018,08,09,13,56,26.10
2018,08,09,13,57,26.00
2018,08,09,13,58,26.10
2018,08,09,13,59,26.10
2018,08,09,14,00,26.10
2018,08,09,14,01,26.10
2018,08,09,14,02,26.10
2018,08,09,14,03,26.10
2018,08,09,14,04,26.00
2018,08,09,14,05,26.00
2018,08,09,14,06,26.00
2018,08,09,14,07,26.00
2018,08,09,14,08,26.00
2018,08,09,14,09,26.00
2018,08,09,14,10,26.10
2018,08,09,14,11,26.10
2018,08,09,14,12,26.10
2018,08,09,14,13,26.20
2018,08,09,14,14,26.20
2018,08,09,14,15,26.20
2018,08,09,14,16,26.20
2018,08,09,14,17,26.20
2018,08,09,14,18,26.30
2018,08,09,14,19,26.30
2018,08,09,14,20,26.30
2018,08,09,14,21,26.30
2018,08,09,14,22,26.40
2018,08,09,14,23,26.40
2018,08,09,14,24,26.50
2018,08,09,14,25,26.50
2018,08,09,14,26,26.70
2018,08,09,14,27,26.70
2018,08,09,14,28,26.80
2018,08,09,14,29,26.90
2018,08,09,14,30,26.90
2018,08,09,14,31,26.90
2018,08,09,14,32,26.90
2018,08,09,14,33,26.90
2018,08,09,14,34,26.90
2018,08,09,14,35,26.90
2018,08,09,14,36,27.00
2018,08,09,14,37,27.00
2018,08,09,14,38,27.00
2018,08,09,14,39,26.90
2018,08,09,14,40,26.90
2018,08,09,14,41,26.80
2018,08,09,14,42,26.80
2018,08,09,14,43,26.80
2018,08,09,14,44,26.70
2018,08,09,14,45,26.70
2018,08,09,14,46,26.70
2018,08,09,14,47,26.70
2018,08,09,14,48,26.70
2018,08,09,14,49,26.70
2018,08,09,14,50,26.80
2018,08,09,14,51,26.80
2018,08,09,14,52,26.80
2018,08,09,14,53,26.80
2018,08,09,14,54,26.90
2018,08,09,14,55,26.90
2018,08,09,14,56,27.00
2018,08,09,14,57,27.10
2018,08,09,14,58,27.10
2018,08,09,14,59,27.20
2018,08,09,15,00,27.20
2018,08,09,15,01,27.30
2018,08,09,15,02,27.30
2018,08,09,15,03,27.40
2018,08,09,15,04,27.50
2018,08,09,15,05,27.60
2018,08,09,15,06,27.80
2018,08,09,15,07,27.80
2018,08,09,15,08,27.90
2018,08,09,15,09,27.90
2018,08,09,15,10,28.00
2018,08,09,15,11,28.00
2018,08,09,15,12,28.10
2018,08,09,15,13,28.20
2018,08,09,15,14,28.20
2018,08,09,15,15,28.30
2018,08,09,15,16,28.30
2018,08,09,15,17,28.30
2018,08,09,15,18,28.30
2018,08,09,15,19,28.30
2018,08,09,15,20,28.30
2018,08,09,15,21,28.30
2018,08,09,15,22,28.20
2018,08,09,15,23,28.20
2018,08,09,15,24,28.20
2018,08,09,15,25,28.20
2018,08,09,15,26,28.20
2018,08,09,15,27,28.30
2018,08,09,15,28,28.40
2018,08,09,15,29,28.50
2018,08,09,15,30,28.60
2018,08,09,15,31,28.70
2018,08,09,15,32,28.70
2018,08,09,15,33,28.80
2018,08,09,15,34,28.80
2018,08,09,15,35,28.90
2018,08,09,15,36,28.90
2018,08,09,15,37,28.90
2018,08,09,15,38,28.90
2018,08,09,15,39,28.90
2018,08,09,15,40,28.90
2018,08,09,15,41,28.90
2018,08,09,15,42,29.00
2018,08,09,15,43,29.10
2018,08,09,15,44,29.10
2018,08,09,15,45,29.20
2018,08,09,15,46,29.30
2018,08,09,15,47,29.30
2018,08,09,15,48,29.30
2018,08,09,15,49,29.30
2018,08,09,15,50,29.20
2018,08,09,15,51,29.10
2018,08,09,15,52,29.00
2018,08,09,15,53,29.00
2018,08,09,15,54,28.90
2018,08,09,15,55,28.80
2018,08,09,15,56,28.80
2018,08,09,15,57,28.70
2018,08,09,15,58,28.70
2018,08,09,15,59,28.70
2018,08,09,16,00,28.70
2018,08,09,16,01,28.60
2018,08,09,16,02,28.60
2018,08,09,16,03,28.50
2018,08,09,16,04,28.50
2018,08,09,16,05,28.50
2018,08,09,16,06,28.50
2018,08,09,16,07,28.60
2018,08,09,16,08,28.60
2018,08,09,16,09,28.70
2018,08,09,16,10,28.70
2018,08,09,16,11,28.80
2018,08,09,16,12,28.80
2018,08,09,16,13,28.80
2018,08,09,16,14,28.90
2018,08,09,16,15,28.80
2018,08,09,16,16,28.80
2018,08,09,16,17,28.70
2018,08,09,16,18,28.70
2018,08,09,16,19,28.70
2018,08,09,16,20,28.70
2018,08,09,16,21,28.80
2018,08,09,16,22,28.80
2018,08,09,16,23,28.80
2018,08,09,16,24,28.80
2018,08,09,16,25,28.80
2018,08,09,16,26,28.80
2018,08,09,16,27,28.80
2018,08,09,16,28,28.70
2018,08,09,16,29,28.70
2018,08,09,16,30,28.60
2018,08,09,16,31,28.60
2018,08,09,16,32,28.70
2018,08,09,16,33,28.70
2018,08,09,16,34,28.80
2018,08,09,16,35,28.80
2018,08,09,16,36,28.90
2018,08,09,16,37,28.90
2018,08,09,16,38,29.00
2018,08,09,16,39,29.00
2018,08,09,16,40,29.00
2018,08,09,16,41,29.00
2018,08,09,16,42,28.90
2018,08,09,16,43,28.90
2018,08,09,16,44,28.90
2018,08,09,16,45,28.90
2018,08,09,16,46,28.90
2018,08,09,16,47,28.90
2018,08,09,16,48,28.90
2018,08,09,16,49,28.90
2018,08,09,16,50,28.80
2018,08,09,16,51,28.80
2018,08,09,16,52,28.70
2018,08,09,16,53,28.60
2018,08,09,16,54,28.60
2018,08,09,16,55,28.50
2018,08,09,16,56,28.50
2018,08,09,16,57,28.40
2018,08,09,16,58,28.30
2018,08,09,16,59,28.30
2018,08,09,17,00,28.30
2018,08,09,17,01,28.30
2018,08,09,17,02,28.30
2018,08,09,17,03,28.30
2018,08,09,17,04,28.30
2018,08,09,17,05,28.20
2018,08,09,17,06,28.20
2018,08,09,17,07,28.10
2018,08,09,17,08,28.10
2018,08,09,17,09,28.10
2018,08,09,17,10,28.10
2018,08,09,17,11,28.10
2018,08,09,17,12,28.10
2018,08,09,17,13,28.20
2018,08,09,17,14,28.20
2018,08,09,17,15,28.20
2018,08,09,17,16,28.30
2018,08,09,17,17,28.30
2018,08,09,17,18,28.30
2018,08,09,17,19,28.30